FW5816 Weather Reports


Display with metric or nautical units.
time (UTC)temp
F
wind
direction
speed
MPH
gust
MPH
rain 1hr
in
rain 24hr
in
rain mn
in
humidity
%
barometer
mb
20260831161538 88 223 5.0 12.0 0.00 0.00 0.00 66 1020.2
20260831161018 88 240 5.0 12.0 0.00 0.00 0.00 68 1020.1
20260831160518 88 205 5.0 12.0 0.00 0.00 0.00 66 1020.2
20260831160058 87 264 5.0 13.0 0.00 0.00 0.00 68 1020.2
20260831155520 87 291 6.0 14.0 0.00 0.00 0.00 68 1020.2
20260831155020 87 274 8.0 14.0 0.00 0.00 0.00 68 1020.2
20260831154604 87 233 5.0 11.0 0.00 0.00 0.00 68 1020.3
20260831154017 87 280 7.0 11.0 0.00 0.00 0.00 68 1020.2
20260831153517 86 299 3.0 11.0 0.00 0.00 0.00 69 1020.2
20260831153113 86 222 6.0 11.0 0.00 0.00 0.00 70 1020.2
20260831152517 86 305 5.0 10.0 0.00 0.00 0.00 70 1020.3
20260831152020 86 200 3.0 10.0 0.00 0.00 0.00 70 1020.2
20260831151536 86 276 3.0 7.0 0.00 0.00 0.00 70 1020.2
20260831151018 85 263 3.0 9.0 0.00 0.00 0.00 70 1020.3
20260831150520 85 287 3.0 9.0 0.00 0.00 0.00 70 1020.4
20260831150038 85 295 4.0 9.0 0.00 0.00 0.00 71 1020.4
20260831145519 85 276 5.0 11.0 0.00 0.00 0.00 70 1020.4
20260831145022 85 274 6.0 11.0 0.00 0.00 0.00 70 1020.4
20260831144537 85 269 4.0 10.0 0.00 0.00 0.00 72 1020.3
20260831144017 84 332 2.0 10.0 0.00 0.00 0.00 74 1020.3
20260831143517 84 162 5.0 10.0 0.00 0.00 0.00 73 1020.4
20260831143034 84 290 5.0 10.0 0.00 0.00 0.00 73 1020.3
20260831142518 84 283 4.0 10.0 0.00 0.00 0.00 73 1020.3
20260831142018 83 253 5.0 10.0 0.00 0.00 0.00 73 1020.2
20260831141542 83 321 4.0 8.0 0.00 0.00 0.00 74 1020.2
20260831141022 83 241 4.0 6.0 0.00 0.00 0.00 75 1020.2
20260831140521 83 297 3.0 6.0 0.00 0.00 0.00 76 1020.2
20260831140037 83 282 2.0 6.0 0.00 0.00 0.00 77 1020.1
20260831135519 82 297 2.0 8.0 0.00 0.00 0.00 76 1020.1
20260831135019 82 167 2.0 8.0 0.00 0.00 0.00 76 1020.2
20260831134538 82 185 1.0 6.0 0.00 0.00 0.00 77 1020.1
20260831134019 82 211 2.0 3.0 0.00 0.00 0.00 78 1020.2
20260831133519 82 238 2.0 3.0 0.00 0.00 0.00 77 1020.2
20260831133038 83 172 0.0 2.0 0.00 0.00 0.00 77 1020.2
20260831132520 82 0 0.0 2.0 0.00 0.00 0.00 78 1020.2
20260831132018 81 0 0.0 2.0 0.00 0.00 0.00 79 1020.1
20260831131538 81 0 0.0 2.0 0.00 0.00 0.00 80 1020.0
20260831131020 80 136 0.0 2.0 0.00 0.00 0.00 81 1020.1
20260831130519 79 136 1.0 2.0 0.00 0.00 0.00 81 1020.1
20260831130044 79 136 0.0 2.0 0.00 0.00 0.00 83 1020.0
20260831125520 78 129 0.0 2.0 0.00 0.00 0.00 84 1019.9
20260831125021 77 0 0.0 2.0 0.00 0.00 0.00 85 1020.0
20260831124537 76 0 0.0 2.0 0.00 0.00 0.00 86 1019.8
20260831124020 75 127 0.0 3.0 0.00 0.00 0.00 88 1019.9
20260831123519 75 125 0.0 3.0 0.00 0.00 0.00 89 1019.8
20260831123046 74 144 1.0 3.0 0.00 0.00 0.00 90 1019.7
20260831122524 73 129 0.0 1.0 0.00 0.00 0.00 92 1019.7
20260831122017 73 0 0.0 0.0 0.00 0.00 0.00 92 1019.6
20260831121541 72 0 0.0 0.0 0.00 0.00 0.00 92 1019.7
20260831121018 72 0 0.0 0.0 0.00 0.00 0.00 92 1019.6
20260831120519 72 0 0.0 0.0 0.00 0.00 0.00 92 1019.5
20260831120111 72 0 0.0 0.0 0.00 0.00 0.00 92 1019.5
20260831115524 72 0 0.0 0.0 0.00 0.00 0.00 92 1019.5
20260831115025 72 0 0.0 0.0 0.00 0.00 0.00 92 1019.4
20260831114536 72 0 0.0 0.0 0.00 0.00 0.00 92 1019.4
20260831114020 72 0 0.0 0.0 0.00 0.00 0.00 93 1019.3
20260831113517 71 0 0.0 1.0 0.00 0.00 0.00 93 1019.3
20260831113039 71 0 0.0 1.0 0.00 0.00 0.00 93 1019.2
20260831112518 71 0 0.0 0.0 0.00 0.00 0.00 93 1019.2
20260831112019 71 0 0.0 1.0 0.00 0.00 0.00 93 1019.2
20260831111545 71 0 0.0 1.0 0.00 0.00 0.00 93 1019.1
20260831111019 71 0 0.0 1.0 0.00 0.00 0.00 93 1019.1
20260831110517 71 0 0.0 0.0 0.00 0.00 0.00 92 1019.1
20260831110038 71 0 0.0 0.0 0.00 0.00 0.00 92 1018.9
20260831105518 71 0 0.0 0.0 0.00 0.00 0.00 92 1018.9
20260831105019 72 0 0.0 0.0 0.00 0.00 0.00 92 1018.9
20260831104539 72 0 0.0 0.0 0.00 0.00 0.00 92 1018.8
20260831104019 72 0 0.0 0.0 0.00 0.00 0.00 92 1018.7
20260831103519 72 0 0.0 0.0 0.00 0.00 0.00 92 1018.7
20260831103043 72 0 0.0 0.0 0.00 0.00 0.00 91 1018.6
20260831102517 72 0 0.0 0.0 0.00 0.00 0.00 91 1018.6
20260831102019 72 0 0.0 0.0 0.00 0.00 0.00 91 1018.5
20260831101538 72 0 0.0 0.0 0.00 0.00 0.00 91 1018.5
20260831101018 73 0 0.0 0.0 0.00 0.00 0.00 90 1018.4
20260831100518 73 0 0.0 0.0 0.00 0.00 0.00 90 1018.4
20260831100043 73 0 0.0 1.0 0.00 0.00 0.00 90 1018.3
20260831095520 73 129 0.0 1.0 0.00 0.00 0.00 90 1018.2
20260831095017 73 0 0.0 1.0 0.00 0.00 0.00 90 1018.2
20260831094535 73 0 0.0 1.0 0.00 0.00 0.00 89 1018.1
20260831094022 73 0 0.0 0.0 0.00 0.00 0.00 89 1018.1
20260831093520 73 0 0.0 1.0 0.00 0.00 0.00 89 1018.1
20260831093038 73 0 0.0 1.0 0.00 0.00 0.00 89 1018.1
20260831092518 73 0 0.0 1.0 0.00 0.00 0.00 89 1018.0
20260831092018 73 0 0.0 1.0 0.00 0.00 0.00 89 1018.0
20260831091537 73 0 0.0 1.0 0.00 0.00 0.00 89 1018.0
20260831091020 73 0 0.0 1.0 0.00 0.00 0.00 89 1018.0
20260831090522 73 0 0.0 1.0 0.00 0.00 0.00 89 1017.9
20260831090036 73 0 0.0 1.0 0.00 0.00 0.00 89 1017.9
20260831085520 73 0 0.0 2.0 0.00 0.00 0.00 89 1017.9
20260831085020 73 0 0.0 3.0 0.00 0.00 0.00 90 1017.8
20260831084540 73 0 1.0 3.0 0.00 0.00 0.00 90 1017.7
20260831084019 73 0 0.0 3.0 0.00 0.00 0.00 90 1017.6
20260831083519 73 136 1.0 2.0 0.00 0.00 0.00 90 1017.6
20260831083041 73 0 0.0 1.0 0.00 0.00 0.00 90 1017.7
20260831082518 73 127 0.0 1.0 0.00 0.00 0.00 90 1017.7
20260831082016 73 0 0.0 1.0 0.00 0.00 0.00 90 1017.8
20260831081545 73 0 0.0 1.0 0.00 0.00 0.00 90 1017.8
20260831081017 73 0 0.0 1.0 0.00 0.00 0.00 90 1017.7
20260831080517 73 0 0.0 1.0 0.00 0.00 0.00 89 1017.7
20260831080036 73 0 0.0 1.0 0.00 0.00 0.00 89 1017.7
20260831075519 73 127 0.0 1.0 0.00 0.00 0.00 89 1017.7
20260831075020 73 0 0.0 1.0 0.00 0.00 0.00 88 1017.8
20260831074538 73 0 0.0 0.0 0.00 0.00 0.00 89 1017.7
20260831074018 73 0 0.0 0.0 0.00 0.00 0.00 89 1017.9
20260831073517 73 0 0.0 0.0 0.00 0.00 0.00 89 1017.8
20260831073036 73 0 0.0 0.0 0.00 0.00 0.00 88 1017.9
20260831072519 73 0 0.0 0.0 0.00 0.00 0.00 88 1017.8
20260831072017 73 0 0.0 0.0 0.00 0.00 0.00 88 1017.9
20260831071537 73 0 0.0 0.0 0.00 0.00 0.00 88 1017.8
20260831071021 74 0 0.0 0.0 0.00 0.00 0.00 87 1018.0
20260831070517 74 0 0.0 0.0 0.00 0.00 0.00 87 1018.0
20260831070105 74 0 0.0 0.0 0.00 0.00 0.00 87 1018.0
20260831065522 74 0 0.0 0.0 0.00 0.00 0.00 87 1018.0
20260831065018 74 0 0.0 0.0 0.00 0.00 0.00 87 1018.0
20260831064535 74 0 0.0 0.0 0.00 0.00 0.00 87 1018.0
20260831064017 74 0 0.0 1.0 0.00 0.00 0.00 87 1018.1
20260831063520 74 0 0.0 1.0 0.00 0.00 0.00 87 1018.1
20260831063036 74 0 0.0 1.0 0.00 0.00 0.00 87 1018.2
20260831062524 74 0 0.0 0.0 0.00 0.00 0.00 86 1018.2
20260831062020 74 0 0.0 0.0 0.00 0.00 0.00 86 1018.2
20260831061538 74 0 0.0 0.0 0.00 0.00 0.00 86 1018.2
20260831061018 74 0 0.0 1.0 0.00 0.00 0.00 86 1018.3
20260831060518 75 0 0.0 1.0 0.00 0.00 0.00 85 1018.3
20260831060047 75 127 0.0 1.0 0.00 0.00 0.00 85 1018.3
20260831055518 75 0 0.0 1.0 0.00 0.00 0.00 85 1018.4
20260831055023 75 0 0.0 1.0 0.00 0.00 0.00 85 1018.3
20260831054536 75 0 0.0 1.0 0.00 0.00 0.00 85 1018.2
20260831054019 75 0 0.0 0.0 0.00 0.00 0.00 85 1018.3
20260831053518 75 0 0.0 0.0 0.00 0.00 0.00 84 1018.3
20260831053038 75 0 0.0 0.0 0.00 0.00 0.00 84 1018.3
20260831052520 75 0 0.0 0.0 0.00 0.00 0.00 84 1018.2
20260831052019 75 0 0.0 0.0 0.00 0.00 0.00 84 1018.2
20260831051549 75 0 0.0 2.0 0.00 0.00 0.00 84 1018.3
20260831051016 75 0 0.0 2.0 0.00 0.00 0.00 84 1018.3
20260831050516 75 0 0.0 1.0 0.00 0.00 0.00 85 1018.3
20260831050039 75 0 0.0 0.0 0.00 0.00 0.00 85 1018.2
20260831045519 75 0 0.0 0.0 0.00 0.00 0.00 85 1018.4
20260831045017 75 0 0.0 0.0 0.00 0.00 0.00 85 1018.2
20260831044539 76 0 0.0 0.0 0.00 0.00 0.00 85 1018.4
20260831044018 76 0 0.0 0.0 0.00 0.00 0.00 85 1018.3
20260831043520 76 0 0.0 0.0 0.00 0.00 0.00 84 1018.5
20260831043040 76 0 0.0 0.0 0.00 0.00 0.00 84 1018.4
20260831042517 76 0 0.0 0.0 0.00 0.00 0.00 84 1018.5
20260831042020 76 0 0.0 0.0 0.00 0.00 0.00 83 1018.4
20260831041536 76 0 0.0 0.0 0.00 0.00 0.00 83 1018.5
20260831041024 76 0 0.0 0.0 0.00 0.00 0.00 83 1018.5
20260831040520 76 0 0.0 0.0 0.00 0.00 0.00 83 1018.3
20260831040046 76 0 0.0 0.0 0.00 0.00 0.00 83 1018.4
20260831035518 76 0 0.0 0.0 0.00 0.00 0.00 83 1018.2
20260831035017 76 0 0.0 0.0 0.00 0.00 0.00 83 1018.3
20260831034536 76 0 0.0 0.0 0.00 0.00 0.00 83 1018.2
20260831034020 77 0 0.0 0.0 0.00 0.00 0.00 83 1018.2
20260831033517 77 0 0.0 0.0 0.00 0.00 0.00 82 1018.3
20260831033039 77 0 0.0 0.0 0.00 0.00 0.00 82 1018.2
20260831032519 77 0 0.0 0.0 0.00 0.00 0.00 82 1018.3
20260831032019 77 0 0.0 0.0 0.00 0.00 0.00 81 1018.3
20260831031535 78 0 0.0 0.0 0.00 0.00 0.00 81 1018.3
20260831031017 78 0 0.0 0.0 0.00 0.00 0.00 80 1018.3
20260831030518 78 0 0.0 0.0 0.00 0.00 0.00 80 1018.4
20260831030037 78 0 0.0 0.0 0.00 0.00 0.00 79 1018.4
20260831025518 78 0 0.0 0.0 0.00 0.00 0.00 79 1018.4
20260831025020 78 0 0.0 0.0 0.00 0.00 0.00 79 1018.5
20260831024538 78 0 0.0 0.0 0.00 0.00 0.00 79 1018.4
20260831024020 78 0 0.0 0.0 0.00 0.00 0.00 80 1018.4
20260831023520 78 0 0.0 0.0 0.00 0.00 0.00 80 1018.4
20260831023041 79 0 0.0 1.0 0.00 0.00 0.00 80 1018.3
20260831022517 79 0 0.0 1.0 0.00 0.00 0.00 80 1018.4
20260831022016 79 0 0.0 1.0 0.00 0.00 0.00 81 1018.3
20260831021550 79 122 0.0 1.0 0.00 0.00 0.00 81 1018.3
20260831021018 79 122 0.0 1.0 0.00 0.00 0.00 82 1018.2
20260831020520 79 122 0.0 4.0 0.00 0.00 0.00 82 1018.3
20260831020038 79 122 1.0 4.0 0.00 0.00 0.00 81 1018.2
20260831015524 79 75 2.0 4.0 0.00 0.00 0.00 79 1018.2
20260831015019 80 93 1.0 2.0 0.00 0.00 0.00 77 1018.2
20260831014535 80 0 0.0 0.0 0.00 0.00 0.00 76 1018.1
20260831014019 80 0 0.0 1.0 0.00 0.00 0.00 76 1018.1
20260831013517 80 0 0.0 1.0 0.00 0.00 0.00 75 1018.0
20260831013040 81 0 0.0 1.0 0.00 0.00 0.00 74 1017.9
20260831012518 81 0 0.0 0.0 0.00 0.00 0.00 73 1017.9
20260831012019 81 0 0.0 0.0 0.00 0.00 0.00 72 1017.9
20260831011540 81 0 0.0 0.0 0.00 0.00 0.00 71 1017.8
20260831011018 82 0 0.0 0.0 0.00 0.00 0.00 69 1017.7
20260831010517 82 0 0.0 0.0 0.00 0.00 0.00 69 1017.6
20260831010106 82 0 0.0 0.0 0.00 0.00 0.00 68 1017.7
20260831005519 83 0 0.0 0.0 0.00 0.00 0.00 67 1017.6
20260831005018 83 0 0.0 0.0 0.00 0.00 0.00 66 1017.5
20260831004547 84 0 0.0 0.0 0.00 0.00 0.00 65 1017.5
20260831004016 84 0 0.0 0.0 0.00 0.00 0.00 65 1017.4
20260831003519 85 0 0.0 0.0 0.00 0.00 0.00 62 1017.4
20260831003040 86 0 0.0 1.0 0.00 0.00 0.00 59 1017.3
20260831002519 86 0 0.0 1.0 0.00 0.00 0.00 59 1017.4
20260831002018 87 244 0.0 1.0 0.00 0.00 0.00 59 1017.3
20260831001552 87 0 0.0 1.0 0.00 0.00 0.00 58 1017.4
20260831001023 87 0 0.0 1.0 0.00 0.00 0.00 58 1017.3
20260831000518 88 0 0.0 1.0 0.00 0.00 0.00 57 1017.3
20260831000040 88 0 0.0 1.0 0.00 0.00 0.00 57 1017.5
20260830235520 90 245 0.0 1.0 0.00 0.00 0.00 55 1017.3
20260830235019 90 0 0.0 1.0 0.00 0.00 0.00 54 1017.3
20260830234540 91 242 0.0 1.0 0.00 0.00 0.00 53 1017.2
20260830234021 91 241 0.0 1.0 0.00 0.00 0.00 52 1017.2
20260830233520 91 0 0.0 4.0 0.00 0.00 0.00 53 1017.2
20260830233036 90 0 1.0 4.0 0.00 0.00 0.00 53 1017.3
20260830232522 90 0 0.0 3.0 0.00 0.00 0.00 53 1017.3
20260830232020 90 275 1.0 6.0 0.00 0.00 0.00 52 1017.2
20260830231536 91 216 2.0 6.0 0.00 0.00 0.00 52 1017.3
20260830231019 92 285 2.0 4.0 0.00 0.00 0.00 50 1017.3
20260830230519 92 270 1.0 5.0 0.00 0.00 0.00 52 1017.2
20260830230047 93 139 2.0 5.0 0.00 0.00 0.00 49 1017.2
20260830225518 94 264 0.0 3.0 0.00 0.00 0.00 47 1017.3
20260830225019 94 278 0.0 3.0 0.00 0.00 0.00 49 1017.3
20260830224547 93 278 0.0 4.0 0.00 0.00 0.00 50 1017.2
20260830224020 93 176 1.0 4.0 0.00 0.00 0.00 50 1017.1
20260830223523 93 248 1.0 4.0 0.00 0.00 0.00 51 1017.2
20260830223035 94 278 0.0 4.0 0.00 0.00 0.00 52 1017.2
20260830222520 93 123 0.0 4.0 0.00 0.00 0.00 54 1017.2
20260830222024 93 133 1.0 4.0 0.00 0.00 0.00 52 1017.3
20260830221537 93 0 0.0 4.0 0.00 0.00 0.00 51 1017.2
20260830221020 94 0 1.0 4.0 0.00 0.00 0.00 50 1017.3
20260830220518 94 136 0.0 4.0 0.00 0.00 0.00 52 1017.3
20260830220045 93 128 2.0 5.0 0.00 0.00 0.00 50 1017.4
20260830215521 94 160 0.0 5.0 0.00 0.00 0.00 51 1017.5
20260830215018 93 61 0.0 4.0 0.00 0.00 0.00 52 1017.5
20260830214541 93 61 1.0 4.0 0.00 0.00 0.00 53 1017.6
20260830214019 92 63 1.0 4.0 0.00 0.00 0.00 52 1017.7
20260830213524 92 70 2.0 4.0 0.00 0.00 0.00 53 1017.8
20260830213035 92 15 0.0 4.0 0.00 0.00 0.00 53 1017.8
20260830212516 92 79 2.0 4.0 0.00 0.00 0.00 53 1017.9
20260830212016 92 35 0.0 1.0 0.00 0.00 0.00 54 1017.9
20260830211538 91 0 0.0 2.0 0.00 0.00 0.00 55 1018.0
20260830211020 90 0 0.0 2.0 0.00 0.00 0.00 54 1018.0
20260830210517 90 283 0.0 1.0 0.00 0.00 0.00 56 1018.0
20260830210037 90 283 0.0 1.0 0.00 0.00 0.00 54 1018.0
20260830205520 90 0 0.0 1.0 0.00 0.00 0.00 55 1018.1
20260830205018 90 0 0.0 4.0 0.00 0.00 0.00 55 1018.1
20260830204536 90 0 1.0 4.0 0.00 0.00 0.00 53 1018.0
20260830204019 90 10 2.0 4.0 0.00 0.00 0.00 56 1018.0
20260830203516 91 358 1.0 4.0 0.00 0.00 0.00 54 1018.0
20260830203037 91 321 0.0 3.0 0.00 0.00 0.00 53 1018.0
20260830202520 91 286 1.0 3.0 0.00 0.00 0.00 53 1018.1
20260830202016 92 278 1.0 7.0 0.00 0.00 0.00 50 1018.1
20260830201536 93 0 2.0 7.0 0.00 0.00 0.00 50 1018.2
20260830201018 93 139 1.0 3.0 0.00 0.00 0.00 53 1018.2
20260830200517 91 263 0.0 3.0 0.00 0.00 0.00 51 1018.3
20260830200037 90 0 0.0 3.0 0.00 0.00 0.00 52 1018.3
20260830195519 91 266 0.0 3.0 0.00 0.00 0.00 54 1018.4
20260830195017 91 345 0.0 4.0 0.00 0.00 0.00 52 1018.3
20260830194536 92 354 2.0 4.0 0.00 0.00 0.00 51 1018.4
20260830194016 93 285 0.0 2.0 0.00 0.00 0.00 49 1018.5
20260830193520 93 41 0.0 5.0 0.00 0.00 0.00 49 1018.5
20260830193035 91 271 0.0 7.0 0.00 0.00 0.00 49 1018.5
20260830192520 91 287 3.0 7.0 0.00 0.00 0.00 49 1018.7
20260830192018 91 281 1.0 6.0 0.00 0.00 0.00 50 1018.8
20260830191537 91 276 3.0 6.0 0.00 0.00 0.00 49 1018.8
20260830191020 92 287 2.0 4.0 0.00 0.00 0.00 48 1019.0
20260830190520 92 21 1.0 3.0 0.00 0.00 0.00 51 1019.0
20260830190041 91 269 1.0 3.0 0.00 0.00 0.00 48 1019.2
20260830185520 91 244 1.0 4.0 0.00 0.00 0.00 48 1019.2
20260830185019 91 240 1.0 5.0 0.00 0.00 0.00 52 1019.3
20260830184534 90 266 1.0 5.0 0.00 0.00 0.00 53 1019.4
20260830184021 90 285 1.0 8.0 0.00 0.00 0.00 52 1019.5
20260830183521 89 253 3.0 8.0 0.00 0.00 0.00 53 1019.6
20260830183037 89 299 3.0 8.0 0.00 0.00 0.00 52 1019.8
20260830182519 90 288 3.0 9.0 0.00 0.00 0.00 53 1019.7
20260830182018 90 296 2.0 11.0 0.00 0.00 0.00 53 1019.9
20260830181545 89 240 6.0 11.0 0.00 0.00 0.00 51 1019.9
20260830181020 89 295 4.0 10.0 0.00 0.00 0.00 52 1019.9
20260830180517 89 251 4.0 10.0 0.00 0.00 0.00 53 1019.9
20260830180052 90 242 4.0 10.0 0.00 0.00 0.00 52 1019.9
20260830175520 90 302 2.0 7.0 0.00 0.00 0.00 55 1020.1
20260830175020 90 229 3.0 10.0 0.00 0.00 0.00 54 1020.1
20260830174541 90 146 3.0 10.0 0.00 0.00 0.00 55 1020.2
20260830174026 89 272 4.0 10.0 0.00 0.00 0.00 54 1020.2
20260830173520 89 278 4.0 9.0 0.00 0.00 0.00 55 1020.2
20260830173058 89 287 4.0 9.0 0.00 0.00 0.00 56 1020.2
20260830172516 89 227 3.0 7.0 0.00 0.00 0.00 55 1020.3
20260830172018 88 259 3.0 10.0 0.00 0.00 0.00 57 1020.3
20260830171550 88 281 2.0 10.0 0.00 0.00 0.00 56 1020.3
20260830171025 89 296 4.0 10.0 0.00 0.00 0.00 55 1020.3
20260830170518 89 278 4.0 7.0 0.00 0.00 0.00 55 1020.5
20260830170039 88 302 3.0 7.0 0.00 0.00 0.00 57 1020.5
20260830165519 87 152 4.0 8.0 0.00 0.00 0.00 59 1020.5
20260830165019 88 288 4.0 8.0 0.00 0.00 0.00 56 1020.6
20260830164535 88 229 3.0 8.0 0.00 0.00 0.00 59 1020.7
20260830164017 87 248 3.0 8.0 0.00 0.00 0.00 61 1020.7
20260830163524 88 278 4.0 8.0 0.00 0.00 0.00 61 1020.7
20260830163038 87 224 4.0 8.0 0.00 0.00 0.00 60 1020.6
20260830162521 88 267 2.0 9.0 0.00 0.00 0.00 62 1020.6
20260830162019 87 245 4.0 9.0 0.00 0.00 0.00 61 1020.6